Time,TemperatureF,DewpointF,PressureIn,WindDirection,WindDirectionDegrees,WindSpeedMPH,WindSpeedGustMPH,Humidity,HourlyPrecipIn,Conditions,Clouds,dailyrainin,SoftwareType,DateUTC
2013-07-23 00:00:00,69.7,64.6,29.81,WNW,284,8.0,8.0,84,0.00,,,0.00,Wunderground v.1.15,2013-07-23 05:00:00,
2013-07-23 00:05:00,69.8,64.7,29.81,WNW,292,8.0,11.0,84,0.00,,,0.01,Wunderground v.1.15,2013-07-23 05:05:00,
2013-07-23 00:12:00,69.6,64.2,29.80,NW,313,7.0,8.0,83,0.08,,,0.02,Wunderground v.1.15,2013-07-23 05:12:00,
2013-07-23 00:18:00,69.4,64.4,29.81,WNW,287,8.0,10.0,84,0.07,,,0.02,Wunderground v.1.15,2013-07-23 05:18:00,
2013-07-23 00:24:00,68.7,64.0,29.79,WNW,295,7.0,8.0,85,0.06,,,0.03,Wunderground v.1.15,2013-07-23 05:24:00,
2013-07-23 00:30:00,68.5,64.1,29.77,NW,322,5.0,5.0,86,0.06,,,0.03,Wunderground v.1.15,2013-07-23 05:30:00,
2013-07-23 00:36:00,68.1,64.1,29.76,NW,307,3.0,5.0,87,0.06,,,0.04,Wunderground v.1.15,2013-07-23 05:36:00,
2013-07-23 00:41:00,67.7,64.3,29.72,NE,53,3.0,3.0,89,0.08,,,0.05,Wunderground v.1.15,2013-07-23 05:41:00,
2013-07-23 00:48:00,67.5,64.1,29.72,NNW,345,2.0,3.0,89,0.08,,,0.06,Wunderground v.1.15,2013-07-23 05:48:00,
2013-07-23 00:54:00,67.3,64.3,29.72,NNW,348,2.0,3.0,90,0.08,,,0.06,Wunderground v.1.15,2013-07-23 05:54:00,
2013-07-23 01:00:00,67.2,64.2,29.70,NE,56,2.0,3.0,90,0.04,,,0.06,Wunderground v.1.15,2013-07-23 06:00:00,
2013-07-23 01:06:00,67.1,64.4,29.69,ENE,59,2.0,3.0,91,0.00,,,0.06,Wunderground v.1.15,2013-07-23 06:06:00,
2013-07-23 01:12:00,67.0,64.3,29.69,ENE,62,1.0,1.0,91,0.00,,,0.06,Wunderground v.1.15,2013-07-23 06:12:00,
2013-07-23 01:18:00,66.8,64.1,29.69,ENE,62,1.0,1.0,91,0.00,,,0.06,Wunderground v.1.15,2013-07-23 06:18:00,
2013-07-23 01:24:00,66.6,63.9,29.68,ENE,62,0.0,1.0,91,0.00,,,0.06,Wunderground v.1.15,2013-07-23 06:24:00,
2013-07-23 01:29:00,66.3,63.6,29.66,ENE,65,1.0,2.0,91,0.00,,,0.06,Wunderground v.1.15,2013-07-23 06:29:00,
2013-07-23 01:36:00,66.2,63.8,29.66,ENE,65,1.0,2.0,92,0.00,,,0.06,Wunderground v.1.15,2013-07-23 06:36:00,
2013-07-23 01:41:00,66.1,63.7,29.65,ENE,65,0.0,1.0,92,0.00,,,0.06,Wunderground v.1.15,2013-07-23 06:41:00,
2013-07-23 01:48:00,65.9,63.5,29.66,ENE,65,0.0,1.0,92,0.00,,,0.06,Wunderground v.1.15,2013-07-23 06:48:00,
2013-07-23 01:53:00,65.8,63.7,29.67,ENE,65,0.0,0.0,93,0.00,,,0.06,Wunderground v.1.15,2013-07-23 06:53:00,
2013-07-23 02:02:00,65.9,63.8,29.68,ESE,112,0.0,0.0,93,0.00,,,0.06,Wunderground v.1.15,2013-07-23 07:02:00,
2013-07-23 02:08:00,65.9,63.8,29.68,SSE,150,0.0,1.0,93,0.00,,,0.06,Wunderground v.1.15,2013-07-23 07:08:00,
2013-07-23 02:14:00,65.9,64.1,29.68,SSE,150,0.0,1.0,94,0.00,,,0.06,Wunderground v.1.15,2013-07-23 07:14:00,
2013-07-23 02:20:00,66.0,64.2,29.71,North,5,1.0,7.0,94,0.00,,,0.06,Wunderground v.1.15,2013-07-23 07:20:00,
2013-07-23 02:26:00,66.2,64.1,29.71,WNW,282,6.0,12.0,93,0.00,,,0.06,Wunderground v.1.15,2013-07-23 07:26:00,
2013-07-23 02:32:00,66.6,64.2,29.72,WNW,283,7.0,7.0,92,0.00,,,0.06,Wunderground v.1.15,2013-07-23 07:32:00,
2013-07-23 02:38:00,66.5,63.8,29.71,WNW,282,3.0,7.0,91,0.00,,,0.06,Wunderground v.1.15,2013-07-23 07:38:00,
2013-07-23 02:44:00,66.1,63.7,29.71,West,281,2.0,5.0,92,0.00,,,0.06,Wunderground v.1.15,2013-07-23 07:44:00,
2013-07-23 02:50:00,65.9,63.5,29.70,West,281,2.0,5.0,92,0.00,,,0.06,Wunderground v.1.15,2013-07-23 07:50:00,
2013-07-23 02:56:00,65.7,63.3,29.71,WSW,254,3.0,8.0,92,0.00,,,0.06,Wunderground v.1.15,2013-07-23 07:56:00,
2013-07-23 03:02:00,65.5,63.1,29.70,WSW,255,4.0,7.0,92,0.00,,,0.06,Wunderground v.1.15,2013-07-23 08:02:00,
2013-07-23 03:08:00,65.5,63.1,29.71,SW,232,4.0,7.0,92,0.00,,,0.06,Wunderground v.1.15,2013-07-23 08:08:00,
2013-07-23 03:14:00,65.4,63.0,29.71,WSW,238,4.0,4.0,92,0.00,,,0.06,Wunderground v.1.15,2013-07-23 08:14:00,
2013-07-23 03:20:00,65.4,63.3,29.71,SW,223,4.0,4.0,93,0.00,,,0.06,Wunderground v.1.15,2013-07-23 08:20:00,
2013-07-23 03:26:00,65.2,63.1,29.70,SW,225,4.0,4.0,93,0.00,,,0.06,Wunderground v.1.15,2013-07-23 08:26:00,
2013-07-23 03:32:00,65.1,63.0,29.70,SW,216,3.0,4.0,93,0.00,,,0.06,Wunderground v.1.15,2013-07-23 08:32:00,
2013-07-23 03:38:00,64.9,62.8,29.70,SW,230,3.0,4.0,93,0.00,,,0.06,Wunderground v.1.15,2013-07-23 08:38:00,
2013-07-23 03:44:00,64.8,62.7,29.70,SW,227,3.0,5.0,93,0.00,,,0.06,Wunderground v.1.15,2013-07-23 08:44:00,
2013-07-23 03:50:00,64.7,62.9,29.70,SW,227,2.0,2.0,94,0.00,,,0.06,Wunderground v.1.15,2013-07-23 08:50:00,
2013-07-23 03:56:00,64.6,62.8,29.70,SW,227,2.0,3.0,94,0.00,,,0.06,Wunderground v.1.15,2013-07-23 08:56:00,
2013-07-23 04:02:00,64.5,62.7,29.70,SW,227,3.0,3.0,94,0.00,,,0.06,Wunderground v.1.15,2013-07-23 09:02:00,
2013-07-23 04:08:00,64.4,62.6,29.70,SW,227,2.0,3.0,94,0.00,,,0.06,Wunderground v.1.15,2013-07-23 09:08:00,
2013-07-23 04:13:00,64.3,62.5,29.71,SW,227,2.0,2.0,94,0.00,,,0.06,Wunderground v.1.15,2013-07-23 09:13:00,
2013-07-23 04:20:00,64.2,62.4,29.71,SW,227,2.0,2.0,94,0.00,,,0.06,Wunderground v.1.15,2013-07-23 09:20:00,
2013-07-23 04:25:00,64.2,62.4,29.71,SW,227,2.0,2.0,94,0.00,,,0.06,Wunderground v.1.15,2013-07-23 09:25:00,
2013-07-23 04:32:00,64.0,62.2,29.70,SW,227,1.0,1.0,94,0.00,,,0.06,Wunderground v.1.15,2013-07-23 09:32:00,
2013-07-23 04:38:00,63.8,62.0,29.71,SW,227,0.0,1.0,94,0.00,,,0.06,Wunderground v.1.15,2013-07-23 09:38:00,
2013-07-23 04:44:00,63.7,61.9,29.71,SW,227,0.0,2.0,94,0.00,,,0.06,Wunderground v.1.15,2013-07-23 09:44:00,
2013-07-23 04:50:00,63.6,62.1,29.71,SW,227,1.0,1.0,95,0.00,,,0.06,Wunderground v.1.15,2013-07-23 09:50:00,
2013-07-23 04:56:00,63.6,62.1,29.71,SW,227,0.0,1.0,95,0.00,,,0.06,Wunderground v.1.15,2013-07-23 09:56:00,
2013-07-23 05:02:00,63.5,62.0,29.72,SW,227,0.0,1.0,95,0.00,,,0.06,Wunderground v.1.15,2013-07-23 10:02:00,
2013-07-23 05:08:00,63.5,62.0,29.72,SW,227,0.0,1.0,95,0.00,,,0.06,Wunderground v.1.15,2013-07-23 10:08:00,
2013-07-23 05:14:00,63.4,61.9,29.72,SW,227,0.0,1.0,95,0.00,,,0.06,Wunderground v.1.15,2013-07-23 10:14:00,
2013-07-23 05:20:00,63.3,61.8,29.73,SW,227,0.0,1.0,95,0.00,,,0.06,Wunderground v.1.15,2013-07-23 10:20:00,
2013-07-23 05:26:00,63.2,61.7,29.73,SW,227,1.0,2.0,95,0.00,,,0.06,Wunderground v.1.15,2013-07-23 10:26:00,
2013-07-23 05:32:00,63.2,61.7,29.73,SW,227,1.0,1.0,95,0.00,,,0.06,Wunderground v.1.15,2013-07-23 10:32:00,
2013-07-23 05:38:00,63.2,61.7,29.73,SW,227,0.0,1.0,95,0.00,,,0.06,Wunderground v.1.15,2013-07-23 10:38:00,
2013-07-23 05:44:00,63.1,61.6,29.73,SW,227,0.0,2.0,95,0.00,,,0.06,Wunderground v.1.15,2013-07-23 10:44:00,
2013-07-23 05:50:00,63.1,61.6,29.73,SW,227,0.0,0.0,95,0.00,,,0.06,Wunderground v.1.15,2013-07-23 10:50:00,
2013-07-23 05:56:00,63.1,61.6,29.73,SW,227,0.0,1.0,95,0.00,,,0.06,Wunderground v.1.15,2013-07-23 10:56:00,
2013-07-23 06:02:00,63.1,61.6,29.73,SW,227,0.0,0.0,95,0.00,,,0.06,Wunderground v.1.15,2013-07-23 11:02:00,
2013-07-23 06:08:00,63.1,61.6,29.73,SW,227,0.0,1.0,95,0.00,,,0.06,Wunderground v.1.15,2013-07-23 11:08:00,
2013-07-23 06:14:00,63.2,61.7,29.73,SW,227,0.0,0.0,95,0.00,,,0.06,Wunderground v.1.15,2013-07-23 11:14:00,
2013-07-23 06:20:00,63.4,61.9,29.73,SW,227,0.0,0.0,95,0.00,,,0.06,Wunderground v.1.15,2013-07-23 11:20:00,
2013-07-23 06:25:00,63.7,62.5,29.73,SW,227,0.0,0.0,96,0.00,,,0.06,Wunderground v.1.15,2013-07-23 11:25:00,
2013-07-23 06:32:00,64.0,62.8,29.73,SW,227,0.0,1.0,96,0.00,,,0.06,Wunderground v.1.15,2013-07-23 11:32:00,
2013-07-23 06:38:00,64.3,63.1,29.74,SW,227,1.0,2.0,96,0.00,,,0.06,Wunderground v.1.15,2013-07-23 11:38:00,
2013-07-23 06:44:00,64.6,63.4,29.73,SW,227,2.0,2.0,96,0.00,,,0.06,Wunderground v.1.15,2013-07-23 11:44:00,
2013-07-23 06:50:00,64.9,63.4,29.73,SW,227,1.0,2.0,95,0.00,,,0.06,Wunderground v.1.15,2013-07-23 11:50:00,
2013-07-23 06:56:00,65.0,63.5,29.73,SW,227,1.0,2.0,95,0.00,,,0.06,Wunderground v.1.15,2013-07-23 11:56:00,
2013-07-23 07:02:00,65.2,63.7,29.73,SW,227,2.0,2.0,95,0.00,,,0.06,Wunderground v.1.15,2013-07-23 12:02:00,
2013-07-23 07:08:00,65.4,63.6,29.73,SW,227,3.0,5.0,94,0.00,,,0.06,Wunderground v.1.15,2013-07-23 12:08:00,
2013-07-23 07:14:00,65.8,64.0,29.74,West,275,4.0,7.0,94,0.00,,,0.06,Wunderground v.1.15,2013-07-23 12:14:00,
2013-07-23 07:20:00,66.0,63.9,29.74,WNW,286,4.0,4.0,93,0.00,,,0.06,Wunderground v.1.15,2013-07-23 12:20:00,
2013-07-23 07:26:00,66.2,63.8,29.74,West,269,4.0,6.0,92,0.00,,,0.06,Wunderground v.1.15,2013-07-23 12:26:00,
2013-07-23 07:32:00,66.6,64.2,29.74,West,275,4.0,5.0,92,0.00,,,0.06,Wunderground v.1.15,2013-07-23 12:32:00,
2013-07-23 07:38:00,66.7,64.0,29.74,West,267,5.0,7.0,91,0.00,,,0.06,Wunderground v.1.15,2013-07-23 12:38:00,
2013-07-23 07:44:00,67.0,64.3,29.74,West,281,6.0,6.0,91,0.00,,,0.06,Wunderground v.1.15,2013-07-23 12:44:00,
2013-07-23 07:50:00,67.2,64.2,29.74,WNW,284,6.0,7.0,90,0.00,,,0.06,Wunderground v.1.15,2013-07-23 12:50:00,
2013-07-23 07:56:00,67.4,64.4,29.74,West,274,7.0,8.0,90,0.00,,,0.06,Wunderground v.1.15,2013-07-23 12:56:00,
2013-07-23 08:02:00,67.7,64.7,29.74,WNW,291,7.0,8.0,90,0.00,,,0.06,Wunderground v.1.15,2013-07-23 13:02:00,
2013-07-23 08:08:00,68.2,65.2,29.75,WNW,296,6.0,8.0,90,0.00,,,0.06,Wunderground v.1.15,2013-07-23 13:08:00,
2013-07-23 08:14:00,68.6,65.2,29.75,West,265,7.0,8.0,89,0.00,,,0.06,Wunderground v.1.15,2013-07-23 13:14:00,
2013-07-23 08:20:00,69.0,65.9,29.75,WSW,258,8.0,8.0,90,0.00,,,0.06,Wunderground v.1.15,2013-07-23 13:20:00,
2013-07-23 08:26:00,69.4,65.4,29.76,West,275,8.0,10.0,87,0.00,,,0.06,Wunderground v.1.15,2013-07-23 13:26:00,
2013-07-23 08:32:00,69.6,65.2,29.76,WNW,300,9.0,10.0,86,0.00,,,0.06,Wunderground v.1.15,2013-07-23 13:32:00,
2013-07-23 08:38:00,70.1,65.7,29.77,NW,307,9.0,11.0,86,0.00,,,0.06,Wunderground v.1.15,2013-07-23 13:38:00,
2013-07-23 08:44:00,70.6,65.9,29.76,WNW,284,7.0,12.0,85,0.00,,,0.06,Wunderground v.1.15,2013-07-23 13:44:00,
2013-07-23 08:50:00,70.7,66.0,29.77,WNW,294,7.0,9.0,85,0.00,,,0.06,Wunderground v.1.15,2013-07-23 13:50:00,
2013-07-23 08:56:00,70.9,66.2,29.77,NW,319,8.0,10.0,85,0.00,,,0.06,Wunderground v.1.15,2013-07-23 13:56:00,
2013-07-23 09:02:00,71.4,66.3,29.76,NW,318,6.0,8.0,84,0.00,,,0.06,Wunderground v.1.15,2013-07-23 14:02:00,
2013-07-23 09:08:00,71.5,66.1,29.76,NNW,331,5.0,10.0,83,0.00,,,0.06,Wunderground v.1.15,2013-07-23 14:08:00,
2013-07-23 09:14:00,71.6,66.2,29.76,NW,304,5.0,5.0,83,0.00,,,0.06,Wunderground v.1.15,2013-07-23 14:14:00,
2013-07-23 09:20:00,71.3,66.2,29.76,NW,305,5.0,5.0,84,0.00,,,0.06,Wunderground v.1.15,2013-07-23 14:20:00,
2013-07-23 09:25:00,71.3,66.2,29.76,NW,313,5.0,9.0,84,0.00,,,0.06,Wunderground v.1.15,2013-07-23 14:25:00,
2013-07-23 09:32:00,71.8,66.7,29.76,NW,318,5.0,5.0,84,0.00,,,0.06,Wunderground v.1.15,2013-07-23 14:32:00,
2013-07-23 09:40:00,72.4,67.6,29.76,West,281,4.0,11.0,85,0.00,,,0.06,Wunderground v.1.15,2013-07-23 14:40:00,
2013-07-23 09:46:00,72.2,66.7,29.77,NNW,344,5.0,11.0,83,0.00,,,0.06,Wunderground v.1.15,2013-07-23 14:46:00,
2013-07-23 09:52:00,72.2,66.7,29.77,NNW,333,5.0,6.0,83,0.00,,,0.06,Wunderground v.1.15,2013-07-23 14:52:00,
2013-07-23 09:58:00,72.1,66.6,29.77,NW,315,4.0,7.0,83,0.00,,,0.06,Wunderground v.1.15,2013-07-23 14:58:00,
2013-07-23 10:04:00,72.6,67.1,29.77,NNW,338,4.0,6.0,83,0.00,,,0.06,Wunderground v.1.15,2013-07-23 15:04:00,
2013-07-23 10:10:00,72.8,67.0,29.77,WNW,282,4.0,6.0,82,0.00,,,0.06,Wunderground v.1.15,2013-07-23 15:10:00,
2013-07-23 10:16:00,72.5,66.7,29.78,NW,315,4.0,6.0,82,0.00,,,0.06,Wunderground v.1.15,2013-07-23 15:16:00,
2013-07-23 10:22:00,72.4,66.9,29.78,NW,316,5.0,5.0,83,0.00,,,0.06,Wunderground v.1.15,2013-07-23 15:22:00,
2013-07-23 10:28:00,72.8,67.3,29.78,NNW,340,3.0,6.0,83,0.00,,,0.06,Wunderground v.1.15,2013-07-23 15:28:00,
2013-07-23 10:34:00,72.7,66.9,29.78,NNW,336,4.0,6.0,82,0.00,,,0.06,Wunderground v.1.15,2013-07-23 15:34:00,
2013-07-23 10:40:00,73.0,66.8,29.78,NNW,336,3.0,6.0,81,0.00,,,0.06,Wunderground v.1.15,2013-07-23 15:40:00,
2013-07-23 10:46:00,73.2,67.0,29.79,NNW,339,4.0,7.0,81,0.00,,,0.06,Wunderground v.1.15,2013-07-23 15:46:00,
2013-07-23 10:52:00,73.5,67.3,29.79,NNW,340,3.0,6.0,81,0.00,,,0.06,Wunderground v.1.15,2013-07-23 15:52:00,
2013-07-23 10:58:00,73.6,67.0,29.79,NNW,335,4.0,6.0,80,0.00,,,0.06,Wunderground v.1.15,2013-07-23 15:58:00,
2013-07-23 11:04:00,73.9,67.7,29.79,NNW,346,3.0,4.0,81,0.00,,,0.06,Wunderground v.1.15,2013-07-23 16:04:00,
2013-07-23 11:10:00,74.4,67.1,29.79,NNW,333,3.0,6.0,78,0.00,,,0.06,Wunderground v.1.15,2013-07-23 16:10:00,
2013-07-23 11:16:00,74.3,67.0,29.80,NNW,329,4.0,8.0,78,0.00,,,0.06,Wunderground v.1.15,2013-07-23 16:16:00,
2013-07-23 11:22:00,74.1,67.2,29.80,NNW,338,4.0,4.0,79,0.00,,,0.06,Wunderground v.1.15,2013-07-23 16:22:00,
2013-07-23 11:28:00,73.9,67.0,29.80,NNW,327,4.0,8.0,79,0.00,,,0.06,Wunderground v.1.15,2013-07-23 16:28:00,
2013-07-23 11:34:00,74.3,67.4,29.80,NW,318,4.0,8.0,79,0.00,,,0.06,Wunderground v.1.15,2013-07-23 16:34:00,
2013-07-23 11:40:00,74.8,67.1,29.80,NNW,334,5.0,8.0,77,0.00,,,0.06,Wunderground v.1.15,2013-07-23 16:40:00,
2013-07-23 11:45:00,75.1,67.4,29.80,NNW,344,4.0,8.0,77,0.00,,,0.06,Wunderground v.1.15,2013-07-23 16:45:00,
2013-07-23 11:52:00,75.6,67.9,29.80,North,5,4.0,4.0,77,0.00,,,0.06,Wunderground v.1.15,2013-07-23 16:52:00,
2013-07-23 11:58:00,76.0,67.1,29.80,WNW,284,4.0,7.0,74,0.00,,,0.06,Wunderground v.1.15,2013-07-23 16:58:00,
2013-07-23 12:04:00,75.8,66.9,29.80,NNW,335,5.0,5.0,74,0.00,,,0.06,Wunderground v.1.15,2013-07-23 17:04:00,
2013-07-23 12:10:00,75.8,67.3,29.81,NW,321,5.0,6.0,75,0.00,,,0.06,Wunderground v.1.15,2013-07-23 17:10:00,
2013-07-23 12:16:00,75.8,66.9,29.81,NNW,342,5.0,9.0,74,0.00,,,0.06,Wunderground v.1.15,2013-07-23 17:16:00,
2013-07-23 12:22:00,75.8,67.3,29.81,NNW,340,4.0,4.0,75,0.00,,,0.06,Wunderground v.1.15,2013-07-23 17:22:00,
2013-07-23 12:28:00,76.0,65.9,29.81,NW,323,5.0,5.0,71,0.00,,,0.06,Wunderground v.1.15,2013-07-23 17:28:00,
2013-07-23 12:33:00,75.8,66.5,29.81,NNE,15,5.0,5.0,73,0.00,,,0.06,Wunderground v.1.15,2013-07-23 17:33:00,
2013-07-23 12:40:00,76.6,65.2,29.81,NW,325,5.0,5.0,68,0.00,,,0.06,Wunderground v.1.15,2013-07-23 17:40:00,
2013-07-23 12:46:00,76.9,65.1,29.81,NW,323,5.0,9.0,67,0.00,,,0.06,Wunderground v.1.15,2013-07-23 17:46:00,
2013-07-23 12:52:00,77.3,65.1,29.81,NNW,329,5.0,5.0,66,0.00,,,0.06,Wunderground v.1.15,2013-07-23 17:52:00,
2013-07-23 13:02:00,76.8,65.0,29.81,West,269,4.0,6.0,67,0.00,,,0.06,Wunderground v.1.15,2013-07-23 18:02:00,
2013-07-23 13:08:00,77.1,64.9,29.81,NW,324,5.0,6.0,66,0.00,,,0.06,Wunderground v.1.15,2013-07-23 18:08:00,
2013-07-23 13:14:00,77.0,64.3,29.81,North,11,5.0,5.0,65,0.00,,,0.06,Wunderground v.1.15,2013-07-23 18:14:00,
2013-07-23 13:20:00,76.9,64.2,29.81,NNW,333,5.0,8.0,65,0.00,,,0.06,Wunderground v.1.15,2013-07-23 18:20:00,
2013-07-23 13:26:00,76.6,64.0,29.81,NNW,339,5.0,8.0,65,0.00,,,0.06,Wunderground v.1.15,2013-07-23 18:26:00,
2013-07-23 13:32:00,76.9,64.7,29.81,WNW,303,4.0,5.0,66,0.00,,,0.06,Wunderground v.1.15,2013-07-23 18:32:00,
2013-07-23 13:38:00,76.4,65.1,29.81,NNW,333,5.0,10.0,68,0.00,,,0.06,Wunderground v.1.15,2013-07-23 18:38:00,
2013-07-23 13:44:00,76.4,64.6,29.82,NNW,336,6.0,10.0,67,0.00,,,0.06,Wunderground v.1.15,2013-07-23 18:44:00,
2013-07-23 13:52:00,76.6,64.8,29.82,NNW,333,6.0,9.0,67,0.00,,,0.06,Wunderground v.1.15,2013-07-23 18:52:00,
2013-07-23 13:58:00,76.1,63.5,29.81,NW,323,7.0,9.0,65,0.00,,,0.06,Wunderground v.1.15,2013-07-23 18:58:00,
2013-07-23 14:04:00,76.3,65.0,29.82,NW,325,6.0,7.0,68,0.00,,,0.06,Wunderground v.1.15,2013-07-23 19:04:00,
2013-07-23 14:10:00,76.2,63.6,29.82,NW,326,6.0,7.0,65,0.00,,,0.06,Wunderground v.1.15,2013-07-23 19:10:00,
2013-07-23 14:16:00,76.3,62.8,29.82,NNW,332,5.0,7.0,63,0.00,,,0.06,Wunderground v.1.15,2013-07-23 19:16:00,
2013-07-23 14:22:00,76.3,62.8,29.82,North,5,5.0,10.0,63,0.00,,,0.06,Wunderground v.1.15,2013-07-23 19:22:00,
2013-07-23 14:28:00,76.2,62.2,29.82,NW,307,6.0,10.0,62,0.00,,,0.06,Wunderground v.1.15,2013-07-23 19:28:00,
2013-07-23 14:34:00,76.5,62.5,29.81,NNW,346,6.0,7.0,62,0.00,,,0.06,Wunderground v.1.15,2013-07-23 19:34:00,
2013-07-23 14:44:00,76.2,61.3,29.81,NNW,334,6.0,11.0,60,0.00,,,0.06,Wunderground v.1.15,2013-07-23 19:44:00,
2013-07-23 14:50:00,76.1,62.6,29.81,WNW,303,6.0,6.0,63,0.00,,,0.06,Wunderground v.1.15,2013-07-23 19:50:00,
2013-07-23 14:56:00,76.3,61.9,29.82,North,360,6.0,8.0,61,0.00,,,0.06,Wunderground v.1.15,2013-07-23 19:56:00,
2013-07-23 15:01:00,75.8,60.9,29.82,NW,319,7.0,10.0,60,0.00,,,0.06,Wunderground v.1.15,2013-07-23 20:01:00,
2013-07-23 15:08:00,75.7,61.3,29.82,NW,325,6.0,10.0,61,0.00,,,0.06,Wunderground v.1.15,2013-07-23 20:08:00,
2013-07-23 15:16:00,75.5,60.6,29.82,NW,323,6.0,12.0,60,0.00,,,0.06,Wunderground v.1.15,2013-07-23 20:16:00,
2013-07-23 15:22:00,75.3,61.8,29.82,WNW,302,7.0,7.0,63,0.00,,,0.06,Wunderground v.1.15,2013-07-23 20:22:00,
2013-07-23 15:28:00,75.5,61.6,29.82,NNW,344,6.0,9.0,62,0.00,,,0.06,Wunderground v.1.15,2013-07-23 20:28:00,
2013-07-23 15:34:00,75.5,60.6,29.82,NW,326,7.0,9.0,60,0.00,,,0.06,Wunderground v.1.15,2013-07-23 20:34:00,
2013-07-23 15:42:00,75.3,60.0,29.82,NNW,342,7.0,7.0,59,0.00,,,0.06,Wunderground v.1.15,2013-07-23 20:42:00,
2013-07-23 15:48:00,75.1,60.7,29.81,NNW,342,7.0,7.0,61,0.00,,,0.06,Wunderground v.1.15,2013-07-23 20:48:00,
2013-07-23 15:56:00,75.3,61.4,29.82,NNW,327,6.0,7.0,62,0.00,,,0.06,Wunderground v.1.15,2013-07-23 20:56:00,
2013-07-23 16:02:00,75.2,60.4,29.82,NNW,342,5.0,6.0,60,0.00,,,0.06,Wunderground v.1.15,2013-07-23 21:02:00,
2013-07-23 16:08:00,75.0,59.7,29.81,NNW,336,6.0,7.0,59,0.00,,,0.06,Wunderground v.1.15,2013-07-23 21:08:00,
2013-07-23 16:14:00,74.8,60.4,29.82,NNW,331,5.0,6.0,61,0.00,,,0.06,Wunderground v.1.15,2013-07-23 21:14:00,
2013-07-23 16:22:00,74.4,59.1,29.81,NNW,344,5.0,7.0,59,0.00,,,0.06,Wunderground v.1.15,2013-07-23 21:22:00,
2013-07-23 16:32:00,74.2,58.0,29.81,NW,323,4.0,6.0,57,0.00,,,0.06,Wunderground v.1.15,2013-07-23 21:32:00,
2013-07-23 16:38:00,74.1,58.4,29.81,NNW,334,3.0,6.0,58,0.00,,,0.06,Wunderground v.1.15,2013-07-23 21:38:00,
2013-07-23 16:44:00,74.7,59.4,29.81,NNW,342,4.0,7.0,59,0.00,,,0.06,Wunderground v.1.15,2013-07-23 21:44:00,
2013-07-23 16:50:00,75.2,60.4,29.81,NNE,33,3.0,3.0,60,0.00,,,0.06,Wunderground v.1.15,2013-07-23 21:50:00,
2013-07-23 17:02:00,76.1,60.7,29.81,NW,320,3.0,3.0,59,0.00,,,0.06,Wunderground v.1.15,2013-07-23 22:02:00,
2013-07-23 17:08:00,75.8,60.0,29.81,NNW,339,2.0,5.0,58,0.00,,,0.06,Wunderground v.1.15,2013-07-23 22:08:00,
2013-07-23 17:14:00,75.7,59.9,29.81,NNW,340,3.0,5.0,58,0.00,,,0.06,Wunderground v.1.15,2013-07-23 22:14:00,
2013-07-23 17:20:00,76.0,60.6,29.81,NNW,339,4.0,5.0,59,0.00,,,0.06,Wunderground v.1.15,2013-07-23 22:20:00,
2013-07-23 17:26:00,76.2,60.3,29.81,NNW,342,3.0,3.0,58,0.00,,,0.06,Wunderground v.1.15,2013-07-23 22:26:00,
2013-07-23 17:32:00,76.5,60.1,29.81,North,355,3.0,5.0,57,0.00,,,0.06,Wunderground v.1.15,2013-07-23 22:32:00,
2013-07-23 17:38:00,76.6,60.2,29.81,North,349,3.0,5.0,57,0.00,,,0.06,Wunderground v.1.15,2013-07-23 22:38:00,
2013-07-23 17:44:00,76.7,59.8,29.81,NNE,33,3.0,5.0,56,0.00,,,0.06,Wunderground v.1.15,2013-07-23 22:44:00,
2013-07-23 17:54:00,76.6,59.7,29.81,NE,38,3.0,3.0,56,0.00,,,0.06,Wunderground v.1.15,2013-07-23 22:54:00,
2013-07-23 18:01:00,76.7,59.8,29.82,NE,42,3.0,3.0,56,0.00,,,0.06,Wunderground v.1.15,2013-07-23 23:01:00,
2013-07-23 18:08:00,76.2,58.9,29.81,NE,49,3.0,3.0,55,0.00,,,0.06,Wunderground v.1.15,2013-07-23 23:08:00,
2013-07-23 18:14:00,75.8,59.0,29.81,NE,39,2.0,2.0,56,0.00,,,0.06,Wunderground v.1.15,2013-07-23 23:14:00,
2013-07-23 18:26:00,75.9,59.6,29.81,NNW,346,2.0,3.0,57,0.00,,,0.06,Wunderground v.1.15,2013-07-23 23:26:00,
2013-07-23 18:32:00,75.6,59.3,29.82,NNE,23,3.0,3.0,57,0.00,,,0.06,Wunderground v.1.15,2013-07-23 23:32:00,
2013-07-23 18:38:00,75.7,59.9,29.82,NE,51,2.0,4.0,58,0.00,,,0.06,Wunderground v.1.15,2013-07-23 23:38:00,
2013-07-23 18:44:00,75.6,58.8,29.82,NNE,14,2.0,3.0,56,0.00,,,0.06,Wunderground v.1.15,2013-07-23 23:44:00,
2013-07-23 18:52:00,75.4,58.6,29.83,NE,47,2.0,2.0,56,0.00,,,0.06,Wunderground v.1.15,2013-07-23 23:52:00,
2013-07-23 18:58:00,75.2,59.4,29.83,NE,44,2.0,3.0,58,0.00,,,0.06,Wunderground v.1.15,2013-07-23 23:58:00,
2013-07-23 19:03:00,75.0,59.2,29.82,NE,47,1.0,2.0,58,0.00,,,0.06,Wunderground v.1.15,2013-07-24 00:03:00,
2013-07-23 19:10:00,74.7,58.9,29.82,NE,44,1.0,3.0,58,0.00,,,0.06,Wunderground v.1.15,2013-07-24 00:10:00,
2013-07-23 19:16:00,74.4,58.7,29.82,NE,42,2.0,2.0,58,0.00,,,0.06,Wunderground v.1.15,2013-07-24 00:16:00,
2013-07-23 19:26:00,73.9,58.7,29.83,NE,46,1.0,2.0,59,0.00,,,0.06,Wunderground v.1.15,2013-07-24 00:26:00,
2013-07-23 19:32:00,73.8,59.0,29.83,NE,46,0.0,0.0,60,0.00,,,0.06,Wunderground v.1.15,2013-07-24 00:32:00,
2013-07-23 19:38:00,73.5,59.2,29.83,NE,46,0.0,0.0,61,0.00,,,0.06,Wunderground v.1.15,2013-07-24 00:38:00,
2013-07-23 19:44:00,72.9,59.1,29.84,NE,46,0.0,0.0,62,0.00,,,0.06,Wunderground v.1.15,2013-07-24 00:44:00,
2013-07-23 19:50:00,72.4,59.1,29.83,NE,46,0.0,0.0,63,0.00,,,0.06,Wunderground v.1.15,2013-07-24 00:50:00,
2013-07-23 19:56:00,71.9,59.5,29.83,NE,46,0.0,0.0,65,0.00,,,0.06,Wunderground v.1.15,2013-07-24 00:56:00,
2013-07-23 20:04:00,71.0,59.5,29.84,NE,46,0.0,0.0,67,0.00,,,0.06,Wunderground v.1.15,2013-07-24 01:04:00,
2013-07-23 20:10:00,70.2,59.1,29.84,NE,46,0.0,0.0,68,0.00,,,0.06,Wunderground v.1.15,2013-07-24 01:10:00,
2013-07-23 20:16:00,69.5,59.3,29.84,NE,46,0.0,0.0,70,0.00,,,0.06,Wunderground v.1.15,2013-07-24 01:16:00,
2013-07-23 20:26:00,68.2,59.2,29.84,NE,46,0.0,0.0,73,0.00,,,0.06,Wunderground v.1.15,2013-07-24 01:26:00,
2013-07-23 20:34:00,67.2,59.0,29.85,NE,46,0.0,1.0,75,0.00,,,0.06,Wunderground v.1.15,2013-07-24 01:34:00,
2013-07-23 20:40:00,66.2,58.0,29.85,ENE,72,2.0,3.0,75,0.00,,,0.06,Wunderground v.1.15,2013-07-24 01:40:00,
2013-07-23 20:46:00,66.0,58.6,29.86,East,79,3.0,3.0,77,0.00,,,0.06,Wunderground v.1.15,2013-07-24 01:46:00,
2013-07-23 20:52:00,65.7,59.0,29.86,ENE,75,2.0,2.0,79,0.00,,,0.06,Wunderground v.1.15,2013-07-24 01:52:00,
2013-07-23 20:58:00,65.2,58.9,29.87,ENE,75,1.0,2.0,80,0.00,,,0.06,Wunderground v.1.15,2013-07-24 01:58:00,
2013-07-23 21:04:00,64.9,58.9,29.87,ENE,78,2.0,3.0,81,0.00,,,0.06,Wunderground v.1.15,2013-07-24 02:04:00,
2013-07-23 21:10:00,64.7,59.1,29.87,ENE,78,2.0,3.0,82,0.00,,,0.06,Wunderground v.1.15,2013-07-24 02:10:00,
2013-07-23 21:16:00,64.3,59.0,29.88,ENE,78,1.0,1.0,83,0.00,,,0.06,Wunderground v.1.15,2013-07-24 02:16:00,
2013-07-23 21:22:00,63.9,58.6,29.88,ENE,78,1.0,5.0,83,0.00,,,0.06,Wunderground v.1.15,2013-07-24 02:22:00,
2013-07-23 21:28:00,63.7,58.8,29.89,ENE,77,2.0,5.0,84,0.00,,,0.06,Wunderground v.1.15,2013-07-24 02:28:00,
2013-07-23 21:34:00,63.5,58.6,29.89,ENE,77,2.0,2.0,84,0.00,,,0.06,Wunderground v.1.15,2013-07-24 02:34:00,
2013-07-23 21:40:00,63.4,58.5,29.90,ENE,77,1.0,2.0,84,0.00,,,0.06,Wunderground v.1.15,2013-07-24 02:40:00,
2013-07-23 21:46:00,63.1,58.2,29.90,ENE,77,1.0,1.0,84,0.00,,,0.06,Wunderground v.1.15,2013-07-24 02:46:00,
2013-07-23 21:54:00,62.9,58.0,29.90,ENE,76,1.0,3.0,84,0.00,,,0.06,Wunderground v.1.15,2013-07-24 02:54:00,
2013-07-23 22:02:00,62.6,58.0,29.91,ENE,76,1.0,1.0,85,0.00,,,0.06,Wunderground v.1.15,2013-07-24 03:02:00,
2013-07-23 22:08:00,62.3,57.7,29.91,ENE,76,1.0,3.0,85,0.00,,,0.06,Wunderground v.1.15,2013-07-24 03:08:00,
2013-07-23 22:14:00,62.0,57.8,29.92,ENE,76,1.0,1.0,86,0.00,,,0.06,Wunderground v.1.15,2013-07-24 03:14:00,
2013-07-23 22:20:00,61.8,57.2,29.92,East,90,1.0,3.0,85,0.00,,,0.06,Wunderground v.1.15,2013-07-24 03:20:00,
2013-07-23 22:25:00,61.7,57.1,29.92,ENE,76,1.0,2.0,85,0.00,,,0.06,Wunderground v.1.15,2013-07-24 03:25:00,
2013-07-23 22:32:00,61.5,56.9,29.92,ENE,72,1.0,1.0,85,0.00,,,0.06,Wunderground v.1.15,2013-07-24 03:32:00,
2013-07-23 22:38:00,61.4,56.8,29.92,ENE,72,1.0,1.0,85,0.00,,,0.06,Wunderground v.1.15,2013-07-24 03:38:00,
2013-07-23 22:44:00,61.2,56.7,29.92,ENE,73,1.0,1.0,85,0.00,,,0.06,Wunderground v.1.15,2013-07-24 03:44:00,
2013-07-23 22:50:00,61.0,56.5,29.93,ENE,73,1.0,1.0,85,0.00,,,0.06,Wunderground v.1.15,2013-07-24 03:50:00,
2013-07-23 22:56:00,60.7,56.5,29.93,ENE,73,0.0,1.0,86,0.00,,,0.06,Wunderground v.1.15,2013-07-24 03:56:00,
2013-07-23 23:01:00,60.5,56.3,29.93,ENE,73,0.0,0.0,86,0.00,,,0.06,Wunderground v.1.15,2013-07-24 04:01:00,
2013-07-23 23:04:00,60.4,56.2,29.93,ENE,73,0.0,1.0,86,0.00,,,0.06,Wunderground v.1.15,2013-07-24 04:04:00,
2013-07-23 23:06:00,60.2,56.0,29.93,ENE,73,0.0,1.0,86,0.00,,,0.06,Wunderground v.1.15,2013-07-24 04:06:00,
2013-07-23 23:12:00,59.9,56.0,29.93,ENE,73,0.0,0.0,87,0.00,,,0.06,Wunderground v.1.15,2013-07-24 04:12:00,
2013-07-23 23:14:00,59.8,55.9,29.93,ENE,73,0.0,1.0,87,0.00,,,0.06,Wunderground v.1.15,2013-07-24 04:14:00,
2013-07-23 23:20:00,59.5,55.9,29.93,ENE,73,0.0,0.0,88,0.00,,,0.06,Wunderground v.1.15,2013-07-24 04:20:00,
2013-07-23 23:22:00,59.4,55.8,29.93,ENE,73,0.0,0.0,88,0.00,,,0.06,Wunderground v.1.15,2013-07-24 04:22:00,
2013-07-23 23:28:00,59.1,55.5,29.93,ENE,73,0.0,0.0,88,0.00,,,0.06,Wunderground v.1.15,2013-07-24 04:28:00,
2013-07-23 23:34:00,58.9,55.7,29.94,ENE,73,0.0,0.0,89,0.00,,,0.06,Wunderground v.1.15,2013-07-24 04:34:00,
2013-07-23 23:40:00,58.7,55.5,29.93,ENE,73,0.0,0.0,89,0.00,,,0.06,Wunderground v.1.15,2013-07-24 04:40:00,
2013-07-23 23:46:00,58.5,55.3,29.93,ENE,73,0.0,0.0,89,0.00,,,0.06,Wunderground v.1.15,2013-07-24 04:46:00,
2013-07-23 23:52:00,58.3,55.4,29.93,ENE,73,0.0,0.0,90,0.00,,,0.06,Wunderground v.1.15,2013-07-24 04:52:00,
2013-07-23 23:58:00,58.1,55.2,29.93,ENE,73,0.0,0.0,90,0.00,,,0.06,Wunderground v.1.15,2013-07-24 04:58:00,